Location: Aula-Vintri
(58.3875°N, 22.4322°E)
Time: 15:36:31
(UTC+00:00)

Timation 1 Rocket - Pass Details

Date: 13 October 2019
Orbit: 900 x 907 km, 70.0° (Epoch: 17 November)

Event Time Altitude Azimuth Distance (km) Brightness Sun altitude
Rises 16:48:34 0° 213° (SSW) 3,515 7.9 -10.9°
Reaches altitude 10° 16:51:03 10° 212° (SSW) 2,577 7.1 -11.2°
Maximum altitude 16:57:00 81° 127° (SE) 919 4.3 -12.0°
Drops below altitude 10° 17:03:00 10° 41° (NE) 2,589 6.4 -12.8°
Sets 17:05:30 0° 41° (NE) 3,533 7.1 -13.1°
